DELTA 1 DEB, 10868

Orbit data source: Space-Track

DELTA 1 DEB, 10868 is space debris in SSO originally from a launch on Thu, 29 Jul 1976 UTC launched from the Air Force Western Test Range (AFWTR). Debris objects in space refer to the collection of defunct objects orbiting the Earth. Examples of debris include non-operational satellites, rocket bodies, and fragments generated from explosions, collisions, or faulty payload assembly.

Loading next visibility...
Identifier
10868, 1976-077CW
Orbit
SSO
Country
Flag of USUS
Related business
Manufacturer
Unknown
Mission
Spacecraft
Bus & Motor
Unknown
Mass
Unknown
Launch date (UTC)
1976-07-29 (50 years ago)
Launch vehicle
Unknown
Launch site
Air Force Western Test Range (AFWTR)
Object type
Payload
Rocket body
Debris
Shape & HBR
Unknown shape, 0.1 m
Radar Cross Section
Small (<0.1 m²)

Expand to show TLE details & history
Last TLE update: 21 hours ago

TLE from 21 hours ago
0 DELTA 1 DEB
1 10868U 76077CW  26104.35451429  .00000362  00000-0  30218-2 0  9993
2 10868 102.4193 309.6392 0101163 183.6698 357.7001 12.39565480234937
Epoch: 2026-04-14T08:30Z
TLE epoch observation values (Epoch: 2026-04-14T08:30:30.034Z)
Latitude
-1.40398°
Longitude
159.17438°
Altitude
1,431.441 km
Speed
7.182 km/s
True Right ascension
08h 37m 19s
True Declination
-1° 23' 47"
Sunlit
Object was in daylight at epoch
Visualization orbit readout
Latitude
Unknown
Longitude
Unknown
Altitude
Unknown
Speed
Unknown
Apparent Right ascension
Unknown
Apparent Declination
Unknown
Sunlit
N/A
Visualization observer readout
Local Sidereal Time
12:16:58
Azimuth
Unknown
Elevation
Unknown
Doppler factor
Unknown
Orbital elements
Apogee altitude
1,585.805 km
Perigee altitude
1,426.287 km
Semi-major axis
7,884.183 km
Eccentricity
0.01012
Inclination
102.4193°
RAAN
309.6392°
Arg. of periapsis
183.6698°
True anomaly
357.65298°
Mean anomaly
357.7001°
Eccentric anomaly
357.6766°
Mean motion
3.10033 °/min
Orbital period
116.12 mins
BSTAR
0.0030218
Loading maneuver chart data...
Computing Atmospheric mass density...
Loading historical data...
Loading historical data...
Loading historical data...
Loading historical data...
Loading historical data...
Loading historical data...
Loading historical data...

Documentation

Showing up to 5 results
|